GW7009 Weather Reports


time (UTC)temp
C
wind
direction
speed
KPH
gust
KPH
rain 1hr
cm
rain 24hr
cm
rain mn
cm
humidity
%
barometer
mb
20260504081524 7 319 0.0 3.2 0.00 0.00 0.00 55 1014.2
20260504044521 10 231 3.2 11.3 0.00 0.00 0.00 45 1014.2
20260504043008 11 226 1.6 9.7 0.00 0.00 0.00 43 1014.2
20260504041513 10 207 3.2 9.7 0.00 0.00 0.00 46 1014.2
20260504040017 10 243 3.2 11.3 0.00 0.00 0.00 44 1014.0
20260504034522 10 219 3.2 8.0 0.00 0.00 0.00 45 1013.8
20260504033027 10 226 3.2 8.0 0.00 0.00 0.00 45 1013.7
20260504031511 11 210 3.2 11.3 0.00 0.00 0.00 44 1013.6
20260504030013 11 233 4.8 8.0 0.00 0.00 0.00 44 1013.4
20260504024520 10 211 3.2 4.8 0.00 0.00 0.00 45 1013.5
20260504023025 11 201 3.2 8.0 0.00 0.00 0.00 42 1013.6
20260504021506 10 229 3.2 6.4 0.00 0.00 0.00 44 1013.7
20260504020016 11 210 3.2 8.0 0.00 0.00 0.00 44 1013.7
20260504014524 11 209 1.6 4.8 0.00 0.00 0.00 44 1013.6
20260504013023 10 211 1.6 4.8 0.00 0.00 0.00 43 1013.6
20260504011524 11 225 1.6 4.8 0.00 0.00 0.00 45 1013.4
20260504010009 11 219 1.6 4.8 0.00 0.00 0.00 45 1013.5
20260504004519 11 216 1.6 3.2 0.00 0.00 0.00 41 1013.4
20260504003018 12 214 1.6 6.4 0.00 0.00 0.00 40 1013.3
20260504001525 12 240 1.6 3.2 0.00 0.00 0.00 41 1013.1
20260504000025 12 271 1.6 9.7 0.00 0.00 0.00 39 1013.0
20260503234512 13 297 3.2 8.0 0.00 0.00 0.00 40 1012.8
20260503233026 13 280 4.8 11.3 0.00 0.00 0.00 40 1012.7
20260503231522 14 286 4.8 19.3 0.00 0.00 0.00 37 1012.7
20260503230028 14 282 8.0 20.9 0.00 0.00 0.00 35 1012.5
20260503224530 14 300 4.8 19.3 0.00 0.00 0.00 37 1012.6
20260503223013 15 269 9.7 22.5 0.00 0.00 0.00 36 1012.5
20260503221526 15 303 11.3 24.1 0.00 0.00 0.00 34 1012.5
20260503220024 15 313 9.7 20.9 0.00 0.00 0.00 35 1012.7
20260503214526 15 294 9.7 16.1 0.00 0.00 0.00 33 1012.5
20260503213013 15 301 8.0 14.5 0.00 0.00 0.00 35 1012.4
20260503211519 15 277 6.4 22.5 0.00 0.00 0.00 39 1012.4
20260503210025 15 359 4.8 19.3 0.00 0.00 0.00 42 1012.3
20260503204526 15 324 9.7 25.7 0.00 0.00 0.00 38 1012.3
20260503203028 15 298 11.3 20.9 0.00 0.00 0.00 35 1012.4
20260503201516 14 321 3.2 19.3 0.00 0.00 0.00 37 1012.4
20260503200022 13 279 6.4 14.5 0.00 0.00 0.00 38 1012.6
20260503194526 14 359 4.8 17.7 0.00 0.00 0.00 39 1012.7
20260503193027 13 329 4.8 16.1 0.00 0.00 0.00 35 1012.9
20260503191530 14 340 8.0 22.5 0.00 0.00 0.00 38 1013.1
20260503190020 13 323 6.4 14.5 0.00 0.00 0.00 41 1013.3
20260503184524 13 274 11.3 25.7 0.00 0.00 0.00 34 1013.4
20260503183025 13 307 8.0 17.7 0.00 0.00 0.00 38 1013.8
20260503181511 12 319 8.0 17.7 0.00 0.00 0.00 37 1013.8
20260503180017 12 318 11.3 19.3 0.00 0.00 0.00 37 1014.0
20260503174522 12 309 9.7 20.9 0.00 0.00 0.00 37 1014.0
20260503173005 12 316 6.4 20.9 0.00 0.00 0.00 43 1014.2
20260503171510 12 307 9.7 24.1 0.00 0.00 0.00 40 1014.2